Theta_e
296 298 301 302 302 302 302 303 303 304 304 305 306 308 309 311 312 313 313 314 315 315 315 315 316 316 315 315 315 315 315 315 315 315 315 316 316 315 315 315 315 314 314 314 314 314 314 315 316 317 318 320 322 324 327 328 329 330 331 331 331 332 332 332 331 331 331 331 331 331 330 329 328 327 327 327 328 328 329 329 330 330 331 332 334 336
296 297 298 299 300 301 301 303 305 306 307 308 309 310 312 312 312 313 313 313 314 314 315 315 315 315 315 315 315 315 315 314 315 315 315 315 315 315 315 314 314 314 314 314 314 314 314 315 315 316 316 318 320 322 325 327 328 329 330 330 330 331 331 331 331 331 331 331 331 330 328 327 327 327 327 328 328 329 329 330 330 330 331 333 335 336
293 294 294 295 295 295 296 299 301 304 306 308 309 310 310 310 310 311 311 312 312 313 313 314 314 314 314 314 314 314 314 314 314 314 314 314 314 314 314 314 314 313 313 313 314 314 314 314 314 315 316 317 318 320 322 324 325 326 327 328 328 328 329 329 329 329 329 329 328 327 326 326 326 327 328 329 329 330 330 330 331 331 332 334 335 336
293 293 293 294 294 295 295 297 298 301 303 304 306 306 306 306 307 308 308 309 309 310 310 311 311 311 311 312 312 313 312 312 313 312 312 312 312 312 312 312 312 312 312 313 313 313 313 314 314 315 315 316 317 318 320 321 323 324 324 325 325 325 325 326 326 326 326 326 325 325 325 325 326 327 328 329 330 330 331 331 331 332 333 334 335 335
292 293 294 295 295 296 298 298 299 300 301 302 302 302 302 302 303 304 305 305 305 306 307 307 307 307 308 308 309 310 310 310 310 310 310 310 310 310 310 311 311 311 311 312 312 313 313 314 314 315 315 316 316 317 318 320 321 322 322 322 322 323 323 323 323 324 324 324 324 324 324 325 325 326 327 328 330 331 331 331 331 332 333 334 335 335
293 294 296 297 298 299 300 300 300 300 300 300 300 300 301 301 301 302 302 303 303 303 303 304 304 304 304 305 306 306 307 307 307 307 307 307 308 308 308 309 309 310 310 311 311 312 313 313 314 314 315 316 316 316 318 319 320 320 321 321 321 322 322 322 322 322 322 323 323 323 323 324 324 324 325 327 329 330 331 331 331 332 333 334 335 335
293 294 295 296 297 297 298 297 298 298 299 299 299 300 300 300 300 300 301 301 301 300 300 301 301 301 301 302 303 304 304 304 304 304 305 305 306 306 307 307 308 308 309 309 310 311 312 313 313 314 315 315 316 316 317 318 319 319 320 320 320 320 321 321 321 321 322 322 322 322 323 323 323 323 323 325 327 329 331 331 331 331 332 333 334 335
292 293 293 294 294 294 294 295 296 296 297 298 298 299 299 299 300 299 299 299 299 298 298 298 299 299 300 300 300 300 300 301 301 301 303 304 304 305 305 306 306 307 307 308 309 310 311 312 313 314 315 315 316 316 317 317 318 319 319 319 319 319 320 320 320 320 321 321 322 322 322 322 322 322 322 323 325 327 329 330 331 331 331 332 334 335
291 291 292 292 293 293 293 294 295 296 297 298 298 298 299 299 299 299 298 298 297 296 296 296 297 299 299 298 298 298 298 299 299 300 301 301 302 303 304 304 305 306 306 307 308 309 310 312 313 314 314 315 316 316 317 317 317 318 318 318 319 319 319 319 320 320 320 320 321 321 321 321 321 321 322 322 323 325 327 328 330 330 331 332 333 334
291 291 291 292 293 293 292 293 294 296 298 298 299 299 299 299 299 299 298 298 296 295 294 295 296 297 298 297 296 296 297 298 299 300 301 301 301 302 302 302 303 304 305 306 306 307 309 310 312 313 314 314 315 316 316 316 316 316 317 317 318 318 318 319 319 319 319 320 320 320 321 321 320 320 321 322 322 323 324 325 327 329 330 331 332 333
290 291 291 292 293 293 293 294 295 297 298 298 299 299 299 299 299 298 298 298 296 294 293 293 294 295 295 295 295 295 296 296 297 299 300 300 300 300 300 301 301 302 303 304 305 306 307 309 311 312 313 314 314 315 315 315 315 316 316 316 317 317 318 318 319 319 319 319 319 320 320 320 320 320 320 320 321 321 322 323 324 325 327 329 330 331
290 291 291 291 292 293 294 295 296 296 297 298 297 297 297 298 298 298 297 297 297 295 293 292 292 292 292 292 293 293 293 294 294 295 296 297 298 298 299 299 300 301 302 303 304 305 306 307 309 310 312 313 314 314 314 315 315 315 315 315 316 316 317 317 318 318 318 319 319 319 320 320 320 320 320 320 320 320 320 321 322 323 324 325 327 329
290 291 291 291 292 293 294 295 296 296 297 297 297 296 296 296 297 297 297 297 297 296 293 292 291 292 292 292 292 292 292 292 293 294 295 295 296 296 297 298 298 300 301 301 302 303 304 306 307 309 310 312 313 313 313 314 315 315 315 315 315 316 316 316 317 317 318 318 319 319 319 319 319 319 319 319 319 319 319 320 320 321 322 323 325 326
290 291 291 291 291 292 293 295 295 296 296 297 297 297 297 295 295 296 296 296 295 294 292 291 291 292 292 292 292 292 292 292 293 293 294 294 295 295 296 296 297 299 299 300 300 301 303 304 305 306 308 311 313 313 313 313 314 314 315 315 315 315 316 316 316 316 317 318 318 318 319 319 319 319 319 319 318 318 319 319 319 319 320 320 322 324
289 290 290 290 291 292 293 294 295 296 296 297 297 297 297 295 295 296 296 295 294 292 291 291 291 291 292 292 292 291 291 292 292 293 293 294 294 295 295 296 297 298 298 299 299 300 302 303 303 304 306 309 313 315 314 315 315 314 315 315 315 315 315 315 315 316 316 317 317 318 318 318 318 318 318 318 318 318 318 318 318 318 319 319 320 321
290 290 289 290 291 291 293 294 295 295 296 296 297 298 298 297 296 296 296 295 294 292 291 291 291 291 292 292 292 292 291 292 292 292 292 293 294 295 295 295 296 296 297 298 298 299 301 302 303 304 304 306 309 311 313 316 315 314 314 315 315 315 315 315 315 315 315 316 316 317 317 317 317 317 317 317 317 317 316 317 317 317 318 318 319 320
290 290 290 290 290 291 292 294 294 295 296 297 297 298 298 298 298 297 297 296 294 292 292 292 292 291 291 291 292 292 291 291 292 292 292 292 293 294 295 295 295 295 296 297 298 299 300 301 303 304 305 306 308 310 312 314 315 314 314 314 314 314 314 314 314 315 315 315 316 316 316 316 316 316 316 316 316 316 316 316 316 316 316 317 317 318
290 290 290 290 290 291 292 293 294 295 296 297 298 298 299 299 299 298 297 296 295 294 293 293 294 293 291 290 290 291 291 291 292 292 291 291 292 293 294 294 294 295 295 296 297 298 299 300 302 303 305 306 308 309 311 313 314 314 314 313 313 313 313 314 314 314 315 315 315 315 315 315 315 316 316 316 315 315 315 315 315 316 316 316 316 317
290 291 291 291 291 292 292 293 294 295 296 297 297 298 298 298 298 298 297 297 296 295 295 295 294 293 291 291 290 290 289 291 292 292 290 290 290 292 293 294 294 295 295 295 296 297 299 300 302 303 304 305 306 308 310 312 313 313 313 313 313 313 313 313 313 313 314 314 314 314 314 314 315 315 315 315 315 315 315 315 315 316 316 316 316 316
291 291 292 292 292 292 292 293 294 295 296 298 298 298 298 297 297 297 296 296 296 296 296 296 294 292 290 290 289 289 288 290 291 291 290 289 289 291 292 293 293 294 294 295 296 297 298 300 301 302 304 304 306 307 309 310 312 312 312 312 312 312 312 312 312 313 313 313 313 313 313 313 313 313 313 313 313 313 313 314 314 315 315 315 315 315
292 292 293 293 293 293 293 294 295 296 297 298 299 298 298 297 296 296 296 296 296 296 296 295 294 291 290 290 289 288 288 289 290 291 289 289 289 290 291 292 292 293 293 294 295 297 298 299 300 302 303 304 305 307 308 309 310 311 312 311 311 311 311 312 312 312 312 313 313 313 313 313 312 312 312 312 312 312 312 312 313 313 314 314 314 314
294 294 295 295 295 295 294 295 296 297 297 298 298 297 297 296 296 295 295 295 295 295 296 294 291 289 289 288 288 288 288 288 289 290 290 289 288 289 290 291 291 292 292 293 294 296 297 298 299 301 303 304 304 305 306 307 308 309 310 311 311 311 311 311 311 311 312 312 312 311 311 311 311 311 311 311 310 310 310 311 311 311 311 311 312 312
295 295 296 296 296 296 296 296 296 297 297 298 298 298 298 298 297 296 296 296 295 294 292 289 288 288 288 288 288 288 289 289 289 290 290 288 288 288 288 290 291 291 291 291 293 295 296 297 298 300 301 303 303 304 305 305 306 307 308 308 309 309 309 309 309 309 309 310 310 310 310 310 309 309 309 309 309 308 308 308 308 308 308 309 309 309
295 295 295 296 296 296 296 296 296 297 297 298 298 299 300 299 298 298 297 296 295 292 290 289 289 289 288 289 288 288 289 289 289 289 289 288 287 287 287 289 290 290 290 291 292 294 295 295 297 298 299 301 302 303 304 304 305 305 306 306 306 307 307 307 307 307 307 308 308 308 308 308 308 308 307 307 306 306 306 306 306 306 306 306 306 307
294 295 295 296 296 296 297 297 297 297 297 297 298 298 298 299 298 297 295 293 292 291 290 289 289 288 288 288 288 288 288 289 289 289 289 288 287 287 287 288 289 289 289 290 292 293 293 294 295 296 297 299 300 301 302 303 304 304 304 305 305 305 305 305 306 306 306 306 306 306 306 306 306 306 306 305 305 305 304 304 304 304 304 304 305 305
296 296 296 296 297 298 298 298 298 298 298 298 298 299 298 297 295 293 291 291 290 290 290 289 288 288 287 286 286 286 288 288 289 289 290 289 288 287 287 289 289 289 289 290 291 291 291 292 292 293 294 296 298 300 301 302 302 303 304 304 304 304 305 305 305 305 305 305 305 305 305 305 305 305 305 304 304 304 304 304 304 303 303 303 303 304
298 298 298 298 298 298 298 299 299 299 299 300 300 300 298 296 293 291 290 290 290 290 290 289 288 288 287 286 285 285 287 288 289 289 290 290 289 287 287 288 289 289 288 289 290 290 290 290 290 291 292 293 295 297 299 300 301 301 302 302 303 303 304 304 304 304 304 304 304 304 304 304 304 304 304 304 304 304 303 303 303 303 303 303 303 303
298 298 298 298 298 299 299 299 299 300 300 300 301 301 300 295 292 291 290 290 291 291 291 290 289 288 287 287 286 285 286 288 288 288 290 290 289 287 288 288 289 289 288 288 289 289 290 289 289 289 290 291 292 294 296 297 299 300 301 301 301 302 302 302 303 303 303 303 303 303 304 304 303 303 303 303 303 303 303 302 302 302 302 302 302 302
298 298 298 298 299 299 299 299 300 300 300 301 301 301 301 296 294 293 292 292 292 291 291 291 290 289 288 287 286 286 287 288 288 288 289 290 289 288 288 289 289 289 289 288 288 288 288 288 288 288 289 290 290 291 292 294 295 297 299 300 300 300 301 301 301 301 301 302 302 302 302 302 302 302 302 302 302 301 301 301 301 301 301 300 300 300
297 297 298 298 299 299 299 299 300 300 301 301 302 302 301 297 295 295 294 293 293 292 292 291 290 289 288 287 286 286 287 288 289 288 288 289 288 288 289 289 288 288 288 288 287 287 286 287 287 288 288 289 289 289 289 290 291 293 295 297 298 299 299 299 300 300 300 300 300 300 300 300 300 300 300 300 300 300 300 300 299 299 298 298 298 298
295 295 295 295 296 296 297 298 299 300 301 301 302 301 300 297 296 295 295 294 293 293 292 291 290 289 288 288 287 286 287 288 289 289 288 289 289 288 289 287 286 285 286 287 287 286 284 284 286 287 287 287 288 288 288 289 289 290 291 293 295 296 298 298 298 298 299 299 299 299 299 299 299 299 299 299 299 299 299 298 298 297 296 296 295 295
291 291 291 291 291 292 293 294 295 296 297 298 299 299 297 296 295 294 294 294 294 293 293 292 290 290 289 289 289 288 288 289 290 290 288 289 289 289 288 286 284 284 286 287 287 286 284 283 284 285 286 286 286 286 287 288 288 288 289 290 291 292 295 296 296 297 297 298 298 298 298 298 298 298 298 298 298 298 297 297 297 296 294 294 293 293
289 288 288 288 289 289 289 290 290 291 292 292 293 293 293 293 293 293 292 293 293 293 293 292 291 290 290 289 288 288 288 289 290 291 289 288 288 288 287 285 285 285 287 288 287 287 285 283 283 284 284 284 285 285 286 287 287 287 287 288 288 289 291 293 293 294 295 296 297 297 297 297 297 297 297 297 297 297 297 296 296 295 294 293 292 291
288 288 288 288 288 288 288 288 289 289 289 290 290 291 291 291 292 292 292 291 291 291 292 291 291 290 289 288 287 287 287 288 290 291 290 288 287 287 286 286 286 286 287 287 286 286 285 284 283 283 283 283 284 284 284 285 286 286 286 286 286 287 288 289 290 291 292 292 293 294 295 295 296 296 296 296 296 296 296 295 295 295 294 293 292 291
288 288 287 287 287 287 287 287 288 288 288 288 289 289 290 290 290 290 290 290 290 290 290 289 289 289 289 288 288 287 286 287 290 292 291 288 287 287 287 287 287 287 287 286 286 285 284 284 284 283 283 282 283 283 284 284 285 285 285 286 285 285 286 287 288 288 289 289 289 290 291 293 294 294 295 295 295 295 295 295 294 294 294 293 292 291
287 286 286 286 286 287 287 287 287 287 287 287 288 288 289 289 289 289 289 289 290 290 290 289 289 289 289 289 289 288 287 288 290 291 291 289 288 288 287 287 288 288 287 286 286 285 284 284 284 284 283 282 281 282 283 284 284 284 284 284 285 285 285 286 286 287 287 287 287 288 288 290 291 292 293 294 294 294 294 294 294 294 293 293 292 292
286 285 285 285 286 286 286 286 286 286 286 286 287 288 288 288 288 289 289 289 289 289 289 290 290 290 290 290 289 288 288 289 290 290 290 289 289 288 288 288 288 289 288 286 286 285 284 283 283 283 282 281 281 281 281 282 283 283 282 283 283 284 284 285 285 286 285 286 286 286 286 287 289 290 291 293 293 293 293 293 293 293 293 293 292 292
285 285 284 285 285 285 285 285 285 285 285 286 286 287 288 288 288 288 288 288 288 288 288 288 288 289 290 290 290 289 289 289 289 290 290 289 289 289 289 289 289 289 288 287 286 285 284 283 282 281 281 281 281 281 281 281 281 281 281 282 282 283 283 284 284 284 284 285 285 285 285 285 286 286 287 288 289 289 290 290 291 292 292 292 292 292
284 283 284 284 284 284 284 284 285 285 285 286 286 286 287 287 287 287 287 287 287 287 287 287 287 287 288 288 289 289 289 289 288 288 288 288 289 289 290 289 288 288 288 288 287 286 285 284 282 281 280 280 280 281 281 281 281 281 281 282 282 282 282 282 283 283 284 284 284 284 284 284 284 284 284 284 285 285 285 286 288 289 289 289 290 290
283 283 283 284 284 284 284 284 285 285 286 286 286 287 287 287 286 286 286 287 287 287 286 286 286 287 287 287 288 288 288 288 289 289 288 287 288 289 290 289 288 288 288 288 287 286 285 284 283 282 281 280 280 280 281 281 281 281 281 280 280 280 281 281 282 282 282 283 283 282 282 282 282 282 282 282 282 283 283 283 284 285 286 286 286 286
283 283 283 283 284 285 285 285 285 286 286 286 286 286 286 286 286 286 286 286 286 286 286 286 286 286 286 286 286 286 287 287 288 288 288 287 288 289 290 289 289 288 288 287 286 286 285 284 283 282 282 281 281 281 281 281 281 282 281 279 279 279 280 281 281 281 282 282 282 282 282 282 282 282 281 281 281 282 282 282 282 282 283 283 283 284
283 283 283 283 284 284 284 285 285 286 286 286 286 285 285 286 286 286 286 286 286 286 286 286 286 285 285 285 285 285 286 286 287 287 287 287 287 288 289 289 288 288 287 286 285 285 285 284 283 282 282 282 281 280 280 280 281 281 281 279 279 279 280 280 280 280 280 280 281 281 282 281 280 280 280 280 281 281 283 283 283 283 282 282 282 282
283 283 283 283 284 284 285 286 286 286 286 285 285 285 285 285 286 286 286 286 285 286 286 286 285 285 284 283 283 284 284 285 286 287 287 287 287 288 288 288 288 287 287 285 284 284 284 284 283 283 283 282 281 280 279 279 280 280 281 281 280 279 277 277 278 279 279 279 280 280 280 280 279 280 280 280 280 281 282 282 283 283 283 282 281 282
283 283 283 284 284 285 285 285 285 285 285 285 285 285 285 285 286 286 286 285 285 286 286 285 285 284 283 282 282 283 283 284 285 285 286 287 287 287 287 287 287 287 287 285 284 283 283 283 283 283 283 282 281 280 279 279 279 279 279 280 280 278 277 277 278 278 278 279 279 279 279 279 279 279 279 279 279 280 280 280 281 281 282 282 282 282
283 283 284 284 284 284 284 284 284 285 285 285 285 285 285 285 286 286 286 285 285 285 285 285 285 284 282 282 282 282 282 283 284 284 285 286 287 287 286 286 286 286 286 285 284 284 283 282 281 282 282 282 281 280 279 278 278 278 279 279 279 278 278 278 278 278 278 278 278 278 278 279 279 279 278 278 278 279 279 279 279 280 281 281 281 282
284 284 284 284 284 284 284 284 284 284 284 284 285 285 285 285 285 286 286 285 285 285 285 285 284 283 282 281 281 281 281 282 282 283 283 284 284 285 285 285 285 284 284 284 284 284 283 282 282 281 281 280 280 279 279 278 278 278 278 278 278 277 277 277 277 277 277 277 277 277 278 278 279 278 277 277 277 278 278 278 278 279 279 280 280 281
283 283 283 283 283 283 283 284 284 284 284 284 284 285 285 285 285 285 286 285 285 285 285 284 283 282 281 281 281 281 281 280 281 281 282 282 283 283 283 284 284 284 283 283 282 282 282 282 282 282 281 279 278 278 278 278 278 277 277 277 277 276 276 275 275 276 276 276 276 276 277 278 278 277 277 277 277 277 277 277 278 278 278 279 279 280
283 283 283 283 283 283 283 284 284 284 283 284 284 285 285 285 285 285 285 285 285 284 284 283 282 281 281 281 281 281 281 280 280 280 281 281 282 282 282 282 283 283 283 283 282 282 281 282 282 281 281 279 278 277 277 277 277 277 277 277 277 276 275 275 275 275 275 274 274 274 276 277 277 277 277 277 277 277 277 277 277 277 277 278 278 279
283 283 283 283 283 283 283 283 283 283 283 283 284 284 284 285 286 286 285 285 284 284 283 282 281 281 280 280 281 281 281 280 280 280 281 281 281 282 282 282 282 282 282 282 282 282 281 282 282 282 281 280 278 277 276 276 276 277 277 277 276 276 275 275 275 275 275 274 274 274 275 276 277 277 277 277 276 276 276 277 277 277 277 277 278 279
283 283 283 283 283 282 282 283 283 283 283 283 283 283 283 284 284 284 284 284 284 283 283 282 281 281 280 280 280 281 281 280 280 280 280 281 282 282 282 282 282 281 281 281 281 280 280 280 281 282 283 282 280 278 276 276 276 276 276 275 275 275 275 275 275 276 276 276 275 275 275 275 276 276 277 277 276 276 276 276 276 277 277 277 278 280
282 282 282 282 282 282 282 282 282 282 282 282 282 283 283 283 283 283 283 283 282 282 282 282 281 281 280 280 280 280 280 280 280 280 280 281 281 281 282 282 282 282 281 280 280 279 279 278 278 278 280 282 282 280 277 276 276 275 274 274 274 275 275 275 275 276 276 276 276 275 275 275 275 276 276 276 276 275 275 275 275 276 276 276 277 279
Wind_Speed
9 8 7 8 8 8 9 10 11 12 12 11 11 10 10 9 9 9 9 8 8 8 8 8 9 10 12 14 16 17 18 18 19 20 20 20 20 19 19 18 18 17 18 18 18 18 18 18 19 20 21 23 24 26 26 28 29 31 32 32 32 32 31 31 31 31 31 32 33 33 33 33 32 31 31 31 31 31 31 29 29 29 29 30 31 31
8 7 6 7 9 9 10 11 12 12 11 11 10 9 7 8 8 7 7 7 7 7 7 8 9 10 12 13 15 16 17 18 19 20 20 20 20 20 19 19 18 18 18 19 19 20 19 19 19 19 20 22 23 24 25 25 26 28 30 30 31 31 30 29 29 29 30 31 32 32 32 32 31 31 30 31 31 31 31 30 29 29 29 30 31 31
7 7 6 7 8 9 11 13 13 14 13 12 10 9 8 8 8 7 6 6 6 6 7 7 8 10 12 13 14 16 16 17 18 19 19 19 19 19 18 18 18 18 19 20 20 21 20 20 19 19 20 21 22 23 23 23 23 24 25 27 27 28 27 27 27 27 28 29 30 30 30 30 29 29 29 30 31 31 31 30 30 29 29 30 31 31
7 8 8 7 7 10 12 12 13 13 12 11 10 10 9 8 7 6 5 6 6 7 7 8 8 9 10 11 12 14 15 16 17 17 18 18 18 18 18 18 18 19 19 20 21 22 22 21 20 20 20 20 21 22 23 22 21 20 21 22 23 24 25 25 26 26 26 27 28 28 28 28 28 28 28 29 30 31 31 30 30 29 29 30 31 32
7 8 8 7 8 9 10 10 10 9 8 8 9 9 8 7 6 6 6 6 7 7 7 7 8 8 8 9 10 12 14 14 15 16 17 17 18 18 18 19 19 19 20 21 22 23 23 23 22 21 21 21 21 22 24 23 22 21 20 20 20 22 23 24 25 25 26 27 27 27 27 27 27 27 28 29 30 31 31 30 29 29 29 30 31 32
7 7 7 6 6 7 6 6 6 6 6 7 8 8 8 7 6 6 6 7 7 7 6 6 7 7 8 8 9 11 12 13 14 15 16 17 17 18 18 19 19 19 20 21 23 24 25 24 23 22 21 21 22 23 24 25 24 23 22 20 20 20 21 22 24 25 26 26 27 27 27 27 27 27 28 30 30 30 30 30 29 29 29 30 31 33
7 6 6 6 6 6 5 6 6 6 7 7 8 8 9 7 7 7 7 7 6 6 6 6 6 7 7 8 9 9 9 10 12 13 14 15 16 16 17 17 18 18 19 21 23 25 26 25 24 23 22 22 22 23 25 26 26 26 24 23 22 21 21 22 23 24 25 26 26 27 27 27 27 27 28 29 30 30 29 29 29 29 30 31 32 33
8 7 7 7 7 7 7 8 8 7 8 8 9 9 9 8 7 7 7 7 6 6 5 6 6 6 7 6 6 6 6 7 7 8 10 11 12 13 14 15 16 17 18 20 23 25 26 26 25 23 22 22 22 24 25 26 27 26 25 24 23 22 22 22 23 24 25 25 26 27 27 27 26 27 28 29 29 29 29 29 29 30 30 32 33 34
9 9 8 8 8 8 8 9 8 8 8 8 9 9 10 9 8 7 6 6 6 5 5 6 7 7 6 5 4 4 5 5 5 5 6 7 8 9 11 12 14 15 17 19 21 23 25 26 24 23 22 22 23 24 25 26 26 25 25 24 24 23 24 24 24 24 25 26 27 27 27 27 26 26 27 28 28 28 28 28 29 30 31 32 33 33
10 10 9 8 8 8 8 9 9 9 9 8 8 8 8 8 8 7 7 7 6 4 4 5 7 7 7 4 3 3 4 5 6 7 7 6 7 9 10 11 11 13 15 17 20 22 24 24 23 22 21 22 23 24 25 25 24 24 23 23 23 24 24 25 25 25 25 26 26 27 27 27 26 26 26 27 27 27 27 28 28 29 30 31 31 31
9 9 8 8 8 8 8 9 8 8 8 8 8 7 7 7 7 7 8 8 6 4 4 5 5 5 6 4 2 2 2 4 4 5 6 6 8 9 9 10 10 12 14 16 18 20 21 21 20 20 20 21 23 24 25 24 23 22 22 22 22 23 24 24 24 24 24 25 25 25 26 26 26 26 25 26 26 27 27 27 28 28 28 29 29 29
8 7 6 7 7 7 7 7 7 6 6 7 7 6 6 6 5 5 7 9 8 6 4 3 3 3 4 3 2 2 2 3 3 3 3 4 5 6 7 7 8 9 11 12 14 16 18 18 18 17 17 19 22 24 25 24 23 22 21 21 22 22 23 23 23 23 23 23 23 24 24 25 25 25 25 25 26 26 27 28 28 28 27 27 27 28
7 6 6 6 7 7 7 7 6 5 6 6 6 6 5 4 4 5 6 7 7 6 4 3 3 3 3 2 2 2 2 2 3 2 2 2 3 3 4 4 5 5 6 7 8 9 13 15 15 14 14 16 19 22 25 24 23 22 21 21 22 22 23 23 23 23 23 23 23 23 23 23 24 24 25 25 26 27 28 28 28 28 27 27 27 27
7 6 7 8 8 8 7 7 7 7 7 6 5 5 5 4 4 4 5 6 5 4 2 2 2 3 2 2 3 2 2 2 2 2 2 2 2 3 3 4 4 4 5 5 5 6 9 11 11 11 12 13 16 20 24 24 23 22 22 22 22 22 23 23 23 23 23 23 22 23 23 23 23 23 24 25 26 27 28 28 28 28 28 27 27 27
7 7 8 9 8 7 7 7 7 7 7 5 5 5 4 4 4 4 5 5 4 3 1 2 3 3 2 2 3 2 2 2 2 1 2 2 2 3 3 4 4 4 4 5 5 6 8 8 9 9 10 11 12 15 19 22 23 23 22 22 22 23 23 23 23 23 23 23 23 23 23 22 22 22 23 23 24 25 26 27 27 27 27 26 26 26
7 7 9 9 9 8 7 7 7 7 6 5 4 4 5 5 4 4 5 5 4 2 2 2 3 3 3 3 3 3 2 2 1 1 1 2 3 3 4 4 4 5 5 5 5 5 6 7 8 9 10 10 11 12 15 19 21 22 23 23 23 23 23 22 22 23 23 23 23 23 23 23 22 22 22 22 23 23 23 23 24 24 23 23 23 23
8 8 9 9 9 9 8 7 7 6 6 5 5 5 5 5 5 4 4 4 3 2 3 3 3 3 3 2 2 3 2 2 1 0 1 2 3 3 4 4 4 5 6 5 5 5 6 7 8 9 10 10 10 11 14 17 20 21 22 23 23 23 22 22 22 22 23 23 23 23 23 23 23 23 23 23 22 22 22 21 21 21 20 19 19 18
9 9 9 9 9 9 8 7 7 7 6 6 6 6 5 5 5 4 4 4 4 3 4 4 4 3 2 2 2 1 1 1 1 1 1 1 2 3 4 4 4 5 6 5 5 5 6 7 8 9 11 11 9 9 12 16 19 20 22 22 22 22 22 22 22 22 22 23 23 23 23 23 23 23 23 23 23 22 22 21 20 20 19 18 17 17
10 9 9 9 9 8 7 7 7 6 6 6 5 5 4 4 4 4 5 4 5 5 5 5 4 3 2 2 2 1 1 1 1 1 2 1 2 3 4 4 4 4 5 5 6 6 6 7 9 12 16 16 11 6 9 14 18 20 21 21 22 22 22 22 22 22 22 22 22 22 22 22 22 22 22 22 22 22 21 21 21 21 20 20 20 20
10 10 10 9 8 8 8 8 7 6 6 5 5 5 5 5 5 5 5 5 5 5 5 5 5 4 2 2 1 1 1 1 1 0 2 1 2 3 3 3 4 4 5 5 5 5 6 6 8 12 17 18 15 8 2 9 15 18 20 21 21 21 21 21 21 21 21 21 21 21 21 20 20 20 20 20 20 20 20 20 20 20 21 21 22 22
11 11 10 8 7 7 8 7 7 7 6 6 6 6 6 5 4 5 5 4 5 5 5 5 4 3 2 2 1 1 1 1 1 1 1 1 2 2 2 3 3 4 5 5 5 5 5 6 7 10 16 20 19 15 9 2 8 13 16 18 19 20 19 19 19 19 18 18 18 17 17 16 16 15 15 14 14 14 14 15 15 15 15 16 17 17
10 10 9 8 7 7 7 7 8 8 8 7 7 6 5 4 4 4 4 4 5 5 5 4 3 1 1 1 1 0 1 1 1 1 1 1 1 2 2 2 2 3 4 5 5 5 5 5 6 10 19 24 25 22 17 11 7 7 11 13 14 15 15 15 15 14 14 13 13 13 13 13 12 12 12 12 11 11 11 11 11 12 11 11 11 12
12 11 9 8 8 8 8 8 8 8 9 9 9 8 5 5 4 4 4 4 4 4 3 2 2 1 1 1 0 0 0 1 1 1 0 2 1 1 2 2 2 3 4 4 4 5 5 5 7 10 17 26 27 25 22 19 16 14 14 15 16 16 16 16 15 15 14 14 14 14 14 15 15 16 17 17 18 19 20 20 20 20 20 19 18 18
14 13 12 10 9 9 8 9 9 8 8 8 8 8 8 7 6 5 4 3 2 2 3 3 3 2 1 1 0 1 1 1 1 1 0 2 2 1 1 1 2 2 3 4 4 4 4 6 7 9 13 23 27 27 25 22 21 20 19 20 21 22 22 22 21 20 20 19 19 19 20 20 21 22 24 25 26 27 28 28 28 28 27 26 25 24
13 13 12 11 12 12 12 12 12 12 11 9 9 8 8 9 7 5 2 1 2 3 4 4 3 3 2 1 1 1 1 1 1 1 1 2 2 1 1 1 0 1 2 4 4 4 4 6 8 9 10 17 23 26 26 24 23 22 22 23 24 25 26 26 26 25 25 24 25 25 25 26 27 28 29 30 31 32 32 32 32 32 31 30 28 28
17 16 16 17 19 21 22 22 22 21 20 16 12 9 7 6 4 3 2 3 4 5 5 5 4 4 3 2 1 1 1 1 1 2 2 2 3 2 0 1 1 1 1 3 4 4 5 7 8 9 9 12 17 22 25 25 24 23 23 23 24 26 27 27 27 27 27 27 27 28 28 29 30 31 32 33 34 34 34 35 35 34 33 31 29 28
26 26 26 27 27 28 29 29 29 30 30 26 21 15 9 6 5 4 5 5 5 6 6 5 4 4 3 2 2 1 1 1 1 2 2 3 4 3 2 2 2 3 3 2 3 5 7 8 8 9 9 9 11 16 22 24 24 24 24 24 25 26 27 27 27 27 27 27 27 28 29 30 31 31 33 33 34 34 34 35 34 32 30 27 25 24
31 31 31 31 31 31 31 31 32 32 33 32 31 25 15 8 7 7 7 6 6 6 6 6 5 4 4 3 2 1 1 2 2 2 2 2 4 4 3 3 3 3 4 3 3 5 8 8 8 8 8 8 9 11 16 19 21 22 23 25 26 27 27 27 27 27 27 27 27 27 28 29 29 30 31 32 32 33 33 32 31 29 25 21 17 16
29 30 31 31 32 32 32 32 32 32 33 34 33 29 18 10 9 8 7 6 7 7 7 6 6 5 4 4 2 1 1 2 2 2 2 2 3 4 4 4 4 3 4 3 3 5 8 7 7 7 7 8 8 9 10 13 15 16 18 22 25 26 27 27 27 27 27 27 27 27 27 27 28 28 29 29 30 30 31 29 27 24 19 16 14 12
20 23 24 26 28 29 29 28 28 29 31 33 32 27 17 11 9 8 6 7 8 8 7 6 6 5 5 4 3 2 2 3 3 2 2 3 4 4 4 4 3 2 2 2 3 4 5 6 6 7 7 8 8 8 8 9 9 9 10 15 18 22 25 26 27 27 27 27 27 26 26 26 26 27 27 28 28 28 28 27 23 19 14 13 12 12
13 14 15 16 18 18 19 19 19 20 23 25 24 20 13 10 8 6 6 7 8 8 7 7 6 6 6 6 5 4 3 4 3 2 2 3 3 4 4 3 2 1 2 1 2 3 3 3 4 5 6 7 7 7 8 7 7 7 7 8 10 15 20 23 24 25 26 26 27 27 27 26 26 26 26 27 27 28 27 25 22 17 13 13 13 12
8 8 7 7 7 7 7 8 8 9 10 11 11 10 8 7 6 5 5 6 7 7 7 7 7 7 7 6 5 5 4 4 3 3 2 2 2 3 3 2 1 1 2 1 1 4 4 3 2 3 5 5 6 7 8 8 8 7 7 7 8 10 15 16 18 19 21 23 25 26 26 26 26 26 27 27 27 28 27 25 22 17 13 13 13 13
5 4 3 3 2 2 1 1 1 2 2 2 3 4 5 4 4 3 3 4 5 5 6 7 7 7 6 5 4 3 3 3 3 3 2 2 2 2 2 1 1 1 0 2 3 4 5 4 3 2 3 4 5 6 7 8 8 8 8 8 8 8 10 11 11 12 14 16 19 21 23 25 26 26 27 27 28 28 28 27 24 19 15 14 13 13
4 3 3 2 2 2 2 2 2 3 3 3 3 4 4 4 3 3 3 2 2 2 3 5 6 6 6 4 3 3 3 3 3 2 2 1 1 2 2 2 2 2 3 3 4 5 5 5 4 4 3 4 5 6 7 8 8 9 8 8 8 8 8 8 8 8 9 10 11 12 15 17 20 22 24 26 27 28 28 28 25 22 19 15 13 12
3 3 3 2 2 2 3 3 3 3 3 3 4 4 4 4 4 4 4 4 4 3 3 3 3 4 4 5 5 4 4 3 2 2 1 1 1 2 2 2 3 4 5 5 5 5 5 5 5 5 5 4 4 5 6 7 7 8 8 9 8 8 7 7 7 6 7 8 8 8 8 10 12 15 19 23 26 28 29 29 27 25 23 19 15 12
3 3 2 2 3 3 3 3 3 3 3 3 3 3 4 4 5 5 5 5 5 6 6 5 4 3 2 3 4 5 5 4 3 3 2 1 1 2 2 2 3 4 5 6 6 6 6 6 6 6 7 6 5 4 5 5 6 7 8 8 8 8 7 7 6 6 6 7 8 8 7 8 10 12 16 22 26 28 30 30 29 28 26 24 21 17
3 2 2 2 2 3 3 3 3 3 3 3 3 4 4 5 5 5 6 6 6 7 7 7 7 7 7 6 5 5 5 5 4 4 3 2 1 1 2 3 3 3 4 6 7 7 8 7 7 6 6 6 5 4 3 4 5 7 8 8 7 7 7 7 6 6 6 7 8 8 8 9 9 11 14 20 23 25 26 28 28 28 28 27 25 23
3 2 2 2 2 3 3 3 3 3 3 3 4 4 5 6 6 7 7 7 8 8 8 8 8 9 12 11 9 8 7 7 6 6 5 3 2 2 3 3 3 3 3 5 6 7 8 9 8 7 5 5 6 5 4 4 5 6 6 6 6 6 6 6 6 6 6 7 9 9 10 9 9 10 11 12 13 13 15 17 19 21 24 24 25 26
3 2 2 2 2 2 3 3 3 3 3 4 4 5 5 6 7 8 7 8 9 9 9 9 8 9 11 12 12 11 10 9 8 7 6 4 3 3 4 5 5 4 4 4 4 5 7 7 8 8 7 6 6 5 4 4 5 5 4 5 6 6 7 6 6 6 6 7 8 9 9 9 9 9 9 9 9 9 10 10 11 12 14 14 17 20
3 3 2 3 2 3 3 3 3 3 4 4 5 6 6 7 7 7 8 8 8 9 10 10 9 9 9 10 10 11 10 9 8 7 6 5 4 3 4 5 5 5 5 4 4 5 6 7 8 8 8 7 6 5 4 4 4 4 5 5 5 5 7 6 6 6 6 7 8 8 8 8 9 9 9 9 9 9 9 8 8 8 8 8 9 11
3 3 3 3 3 3 3 3 3 3 4 4 5 5 6 6 6 6 7 7 8 8 8 9 9 9 9 10 10 10 10 10 9 9 7 6 6 5 5 5 5 6 6 6 6 6 7 8 9 9 8 8 8 7 6 6 6 6 6 6 5 4 5 7 7 6 6 7 7 8 9 9 10 10 10 10 9 9 8 8 8 8 8 7 6 7
5 4 3 3 3 3 3 3 3 4 4 4 4 4 4 5 5 6 6 6 6 6 7 7 8 9 9 9 9 10 10 10 10 10 10 9 9 8 7 6 6 6 7 8 8 8 8 8 9 9 8 8 8 8 7 7 6 6 7 6 6 5 6 7 7 6 6 7 7 7 9 9 9 9 9 9 9 8 9 10 10 10 9 7 7 6
4 4 3 3 3 3 4 4 4 4 3 4 4 3 3 3 4 5 5 6 6 7 7 7 7 8 9 9 9 9 9 10 11 11 11 10 10 9 9 8 7 7 7 8 8 9 8 9 9 8 7 7 8 9 8 7 6 6 5 5 4 4 4 4 4 5 6 6 6 7 7 8 8 8 9 9 9 8 9 11 12 12 11 9 8 8
4 4 3 3 3 3 3 3 3 3 3 4 4 4 3 3 3 4 4 5 6 7 7 6 7 8 10 9 9 8 8 9 10 12 12 12 12 11 10 10 9 8 7 7 7 8 8 9 9 8 7 7 7 8 8 7 6 6 6 5 5 5 5 3 3 4 5 6 6 6 6 7 8 8 9 9 9 8 8 9 9 9 10 9 8 8
4 4 4 3 3 4 4 4 4 4 4 4 4 4 3 3 3 3 4 5 6 7 6 6 6 7 8 8 8 7 7 7 8 9 10 12 14 13 12 10 10 9 9 8 8 7 8 8 8 7 6 7 8 8 8 8 7 7 7 7 7 7 7 5 4 4 5 5 5 5 5 6 7 8 9 9 9 8 8 8 8 8 8 8 8 8
4 4 4 3 4 4 5 5 4 4 4 5 5 4 3 3 3 3 4 5 6 6 5 5 6 7 8 8 7 7 6 6 7 7 7 9 10 11 11 11 10 10 9 9 9 9 9 8 7 7 7 8 8 8 8 8 8 8 7 7 7 7 6 5 5 5 5 5 5 4 4 5 7 9 10 10 9 8 8 8 8 8 7 7 7 7
5 5 5 4 4 4 4 4 4 5 5 5 5 4 4 3 4 4 5 5 6 6 6 6 7 8 9 8 7 7 7 7 7 6 6 7 8 9 10 10 11 12 11 11 11 11 11 9 8 7 6 7 8 8 7 7 7 7 7 6 6 6 6 5 4 4 4 4 3 3 2 4 7 9 10 9 9 8 7 7 7 7 6 6 6 6
5 5 5 5 5 5 4 4 5 5 6 6 5 5 4 4 5 6 5 6 6 6 7 8 9 9 9 8 8 8 9 8 8 7 6 7 7 8 8 9 10 11 12 13 13 13 13 12 11 9 7 7 7 7 7 6 7 7 6 6 6 6 6 5 3 3 3 3 3 3 2 4 6 8 9 9 8 7 7 7 6 6 5 5 5 5
5 5 5 5 5 5 5 5 5 6 6 6 6 5 5 6 7 7 6 6 6 6 7 9 9 10 9 9 8 8 9 9 8 7 6 6 6 7 7 8 8 9 10 11 12 12 13 14 14 13 11 9 8 7 7 6 6 6 5 5 5 5 5 4 3 3 3 4 4 4 4 4 5 6 8 9 9 8 7 7 6 6 5 5 5 5
5 5 5 4 5 5 5 5 6 6 7 7 7 7 6 6 6 6 6 6 7 7 7 8 9 10 10 9 8 8 8 8 7 6 5 5 5 5 6 6 7 8 8 8 8 8 9 10 12 14 15 13 11 8 6 6 6 6 5 5 4 4 5 4 4 3 4 4 4 5 5 4 4 4 6 9 9 9 8 7 6 5 5 4 5 5
5 5 5 5 5 5 5 6 6 7 7 7 7 7 7 7 6 6 7 7 8 8 8 8 9 9 10 9 8 8 8 8 7 6 5 4 4 4 4 5 6 6 7 6 5 5 5 6 7 9 12 15 14 11 5 4 5 5 5 4 3 3 4 4 4 4 5 5 4 4 5 4 4 4 5 7 8 8 7 6 5 5 4 4 4 5
Wind_Direction
263 264 261 259 264 270 270 268 269 271 271 271 271 271 271 268 266 263 259 257 256 258 260 262 263 262 261 256 254 253 253 255 256 257 257 256 255 255 255 256 257 258 260 261 262 262 263 264 266 267 269 268 266 261 255 246 239 233 229 226 225 223 223 223 223 223 222 221 221 220 219 218 216 214 212 215 218 221 222 219 216 214 213 213 213 213
267 271 272 278 283 285 285 283 280 276 274 274 273 273 273 273 271 270 266 261 259 259 262 264 264 263 261 259 256 255 256 258 260 261 262 261 260 259 259 259 260 261 263 263 263 263 262 262 262 263 263 263 261 259 254 247 239 233 228 224 221 219 218 217 217 217 218 217 217 216 216 215 214 211 209 210 212 215 216 215 213 213 214 215 216 216
272 274 272 279 282 283 282 283 281 278 277 277 277 278 280 280 279 278 277 276 274 271 269 268 267 266 263 261 258 257 259 262 265 267 268 267 267 266 266 266 267 268 268 268 267 265 263 261 260 259 259 258 256 254 251 245 238 231 225 220 217 214 213 212 212 213 213 213 213 213 213 213 212 210 208 208 209 210 211 211 211 212 214 217 219 220
266 267 266 267 266 264 263 266 267 268 270 273 275 278 279 279 278 278 278 280 280 278 274 270 268 266 264 261 259 259 261 265 269 272 274 275 275 275 275 275 275 275 275 273 271 268 265 262 259 257 255 253 251 248 245 240 235 228 222 217 214 211 209 208 209 210 211 211 211 211 211 210 210 209 208 208 208 208 209 209 210 212 215 218 221 222
260 260 262 260 257 255 254 254 256 260 266 271 275 276 276 273 272 273 274 273 273 273 273 268 264 261 260 259 259 260 263 267 271 275 278 279 279 279 280 279 279 279 279 277 274 271 267 263 259 255 253 250 246 243 239 235 230 225 220 216 213 211 209 209 209 210 211 211 211 210 210 210 210 210 210 210 210 209 208 208 210 212 215 218 220 221
259 259 260 258 258 260 265 265 270 277 282 281 279 278 276 272 270 270 271 269 269 269 269 265 260 256 255 255 257 260 264 268 272 275 277 279 280 280 280 280 280 281 280 279 276 273 268 263 259 254 250 247 243 239 235 231 227 222 219 216 214 213 212 212 212 212 213 212 212 211 210 210 211 212 212 213 211 210 208 208 210 212 214 217 219 220
262 259 260 262 266 272 281 283 285 287 287 284 281 279 275 271 268 266 265 265 266 267 268 265 261 256 253 254 256 260 264 268 271 273 275 277 278 279 279 280 281 281 281 279 277 273 269 263 258 253 248 245 240 236 231 227 223 220 217 215 215 215 214 215 215 215 215 214 213 212 211 211 211 212 213 213 211 209 207 208 209 211 213 216 218 219
263 261 260 264 269 273 274 272 272 272 271 272 272 273 271 269 265 262 261 261 260 260 264 266 264 258 251 248 250 255 260 265 267 269 272 273 275 278 280 282 283 283 282 280 277 274 270 264 258 252 247 242 238 233 229 224 220 217 214 213 214 214 215 216 216 216 216 216 214 212 210 210 210 211 211 211 209 208 206 207 208 210 212 215 217 218
262 263 261 261 264 268 269 266 263 259 256 257 259 262 264 265 264 264 263 259 254 248 249 259 263 261 253 239 233 238 249 251 252 254 260 264 269 275 280 283 285 285 285 283 280 276 271 265 259 252 246 240 235 231 226 221 217 214 211 211 212 214 215 216 216 216 216 215 213 211 209 207 207 208 209 208 207 205 205 206 207 209 211 213 215 216
258 260 262 260 258 259 263 264 262 258 250 249 248 249 251 256 260 264 267 263 255 241 231 243 254 260 262 247 232 229 245 251 252 253 256 269 276 280 285 287 287 287 289 287 283 280 275 269 261 253 245 238 233 228 224 219 214 209 207 207 210 212 214 215 215 215 215 214 212 209 207 205 205 206 207 206 205 204 203 204 206 207 209 211 212 213
255 255 258 258 256 254 254 258 260 257 248 247 245 244 240 242 249 259 267 269 266 256 237 235 242 253 264 266 262 251 253 261 261 262 264 280 289 293 296 296 294 293 293 290 288 284 281 276 268 257 246 237 230 225 221 216 210 205 202 203 207 210 214 214 214 213 213 212 210 208 205 204 205 206 208 207 206 205 204 205 205 206 207 208 209 211
252 252 253 255 255 254 252 254 253 249 242 241 241 241 238 233 234 244 258 266 268 267 259 250 243 241 246 258 270 273 263 261 264 268 272 287 299 305 306 304 302 300 299 295 291 289 287 285 279 267 251 237 228 222 218 214 208 202 198 199 203 208 211 212 212 211 211 210 208 207 205 204 205 206 208 209 208 208 207 207 206 206 206 207 208 209
249 250 252 254 254 254 254 254 252 246 239 236 237 240 243 235 228 231 243 255 260 264 264 266 261 250 233 233 242 256 263 258 259 265 280 299 315 321 316 312 310 308 305 298 293 291 293 293 288 278 262 242 229 221 216 213 207 201 197 197 200 204 208 209 209 209 209 208 207 206 205 204 205 206 208 209 210 211 210 209 208 206 205 205 206 207
247 248 250 252 252 252 253 253 253 251 245 240 240 243 249 242 230 227 236 247 253 255 250 255 263 263 247 231 230 236 250 257 262 274 296 315 329 333 325 317 313 311 306 298 294 296 302 300 295 287 277 255 234 221 215 212 207 201 197 197 199 202 205 206 207 207 207 207 207 206 205 205 204 205 207 208 210 211 211 210 209 206 204 204 204 205
245 245 248 249 249 249 249 250 252 253 252 248 247 249 249 242 233 229 234 245 248 244 224 249 261 266 257 236 226 225 238 255 272 298 325 327 335 340 334 324 317 311 305 298 299 304 311 306 299 293 291 276 252 230 217 211 205 200 198 197 197 199 202 203 204 205 205 206 206 206 205 204 204 204 205 207 208 209 210 209 208 207 205 204 204 205
244 244 246 248 250 250 248 250 254 257 260 257 251 246 244 240 235 230 233 242 240 227 217 243 260 268 264 241 221 215 224 248 263 306 350 342 344 345 344 335 325 316 307 305 311 319 323 312 303 297 293 282 260 237 223 213 206 200 198 196 196 196 198 200 201 203 204 204 205 205 204 203 203 203 204 205 206 206 207 207 207 206 205 204 205 206
242 242 245 248 250 250 250 251 255 259 262 261 256 249 243 240 235 231 232 231 224 214 217 224 239 252 264 256 232 210 199 220 226 226 39 359 348 344 347 342 328 317 308 313 325 334 333 319 310 304 300 292 272 244 224 211 203 198 195 194 193 194 195 197 199 201 202 203 204 204 203 202 202 202 202 203 203 203 203 203 203 203 203 203 205 208
238 238 241 245 248 249 250 250 251 254 258 260 258 255 249 242 236 231 229 223 218 218 224 225 229 232 234 251 246 220 166 216 218 192 83 26 353 342 346 343 327 312 307 321 335 342 335 320 317 318 321 310 291 254 221 206 198 194 192 191 190 191 192 195 197 199 201 202 203 203 202 202 201 201 201 201 200 199 199 199 198 199 200 201 203 207
237 236 237 241 244 247 247 245 245 247 253 256 257 257 251 241 232 227 226 222 220 220 223 227 230 229 219 235 246 267 46 282 247 152 89 45 359 345 345 344 329 314 309 328 342 345 332 319 323 333 342 342 334 293 217 200 193 189 187 187 187 188 189 191 194 197 199 201 201 202 202 201 200 200 199 198 198 197 196 196 196 197 199 201 204 207
237 235 233 236 241 244 244 241 240 241 247 253 256 256 252 243 233 226 224 223 222 223 224 229 230 228 215 230 253 313 11 317 285 123 91 60 13 348 345 344 330 317 315 336 347 346 331 325 336 350 360 1 360 355 236 194 189 186 184 184 184 185 187 189 192 195 197 199 200 200 201 200 199 198 197 196 196 196 196 197 198 199 201 203 206 207
240 238 233 232 235 239 241 238 237 237 243 251 257 258 255 248 238 229 225 222 223 225 224 229 228 219 194 197 214 274 13 324 266 208 95 62 21 354 343 341 329 321 324 341 347 345 335 338 350 4 12 14 15 16 20 107 172 177 177 178 179 181 181 184 187 190 192 194 195 194 194 192 190 189 187 186 186 187 187 189 189 189 192 194 196 198
250 246 240 235 235 238 242 243 242 242 244 250 254 256 258 253 246 238 228 223 223 225 228 230 223 188 152 158 195 251 34 302 273 257 109 81 38 352 329 337 329 325 330 341 345 346 346 356 8 19 23 24 25 26 29 42 72 119 143 152 157 159 160 165 167 168 171 170 170 169 168 165 161 157 152 147 143 139 137 137 137 137 138 143 146 148
261 261 259 251 246 245 248 251 251 249 247 247 249 252 256 257 255 251 242 232 226 219 199 156 122 104 96 101 109 272 252 271 280 285 98 101 88 350 318 336 337 336 335 337 338 342 353 11 21 26 29 30 31 32 35 42 54 71 91 104 112 118 122 124 127 130 131 133 134 134 133 131 129 125 122 116 112 109 105 103 102 102 101 103 105 106
259 261 262 259 256 255 257 258 257 254 250 247 248 250 252 254 256 256 252 233 209 168 132 118 113 109 101 104 80 283 267 251 271 276 203 118 123 143 304 329 347 351 346 334 328 332 354 21 27 29 32 33 34 36 38 44 52 63 76 85 93 98 102 104 107 109 111 113 114 115 116 116 115 114 112 109 107 105 102 100 98 96 95 95 95 96
251 253 254 254 253 252 253 254 253 252 250 249 247 247 248 249 250 249 236 171 139 133 132 136 141 146 147 154 203 274 280 250 249 249 210 131 125 132 271 297 358 17 358 336 330 338 11 30 32 30 31 35 36 38 39 44 50 59 69 78 85 90 94 97 99 102 104 106 107 109 110 110 110 110 109 108 106 105 103 101 99 97 95 94 93 93
246 246 248 249 249 249 249 250 250 250 249 248 246 243 240 234 223 201 162 155 151 150 151 157 163 166 161 168 203 250 276 266 254 243 220 145 129 129 203 182 138 103 45 353 346 357 26 36 34 30 28 31 35 38 40 44 48 55 63 71 78 84 88 92 95 98 100 102 104 106 107 108 108 108 108 107 106 105 104 102 101 99 97 95 94 92
247 247 248 248 249 249 249 249 249 249 249 248 246 243 235 212 188 178 180 175 168 165 168 172 172 168 164 174 193 228 260 264 258 248 231 151 130 127 152 156 139 119 95 43 18 23 38 39 35 30 27 24 28 35 40 43 47 52 58 65 72 77 82 86 90 93 96 98 101 103 104 106 106 107 107 106 106 105 104 103 101 99 98 97 95 93
247 247 247 247 247 247 248 248 249 249 248 248 247 244 237 214 193 192 193 181 174 174 180 178 173 167 169 177 187 210 248 249 250 250 243 156 131 129 151 157 147 132 113 90 54 42 44 41 36 30 26 23 24 29 35 38 43 49 55 61 67 72 77 81 84 87 90 93 95 97 99 101 102 103 104 104 104 104 103 102 100 99 97 96 95 94
246 245 245 245 246 246 247 248 249 249 248 248 248 244 233 214 200 199 192 177 175 181 187 182 174 165 160 158 159 184 243 243 241 236 224 155 134 135 155 159 155 143 126 113 79 52 45 38 32 28 25 24 25 26 27 28 33 40 47 57 64 69 73 77 80 82 85 87 89 91 93 94 96 97 99 99 100 100 100 99 98 97 95 94 93 93
243 243 244 244 244 245 246 247 247 247 247 247 246 242 226 211 203 200 184 175 178 184 186 180 171 159 147 140 142 166 221 229 227 214 193 160 148 148 160 159 160 162 159 135 100 69 49 33 25 23 23 26 27 28 25 22 19 21 30 49 58 64 69 73 76 79 81 82 84 85 87 88 89 90 92 93 94 94 94 94 95 95 93 91 89 88
240 240 242 242 243 243 244 244 243 243 243 242 239 232 213 204 200 197 181 179 181 184 182 175 167 159 154 152 157 171 191 205 201 186 181 167 157 154 160 154 168 243 257 188 130 108 85 41 18 14 22 28 30 29 27 25 21 17 14 30 45 55 63 68 73 76 78 79 80 81 82 83 84 85 86 87 87 88 88 89 90 92 92 89 87 84
235 235 236 237 237 237 237 237 235 233 232 230 222 208 187 186 187 188 182 183 184 183 179 171 165 163 165 166 167 168 167 179 174 167 175 167 153 148 149 143 166 246 276 284 121 120 116 106 56 18 25 32 32 29 26 26 25 23 20 25 31 42 52 59 67 73 76 77 78 78 79 80 80 81 81 81 82 82 82 83 85 87 89 89 87 84
215 211 211 211 205 193 181 176 167 164 162 162 155 150 150 152 155 158 165 174 178 178 175 168 165 164 165 162 154 144 137 149 157 165 179 166 148 138 140 143 156 163 53 36 60 85 103 115 116 88 51 44 38 32 26 26 25 25 24 27 28 30 34 40 52 64 70 74 75 76 76 77 77 77 77 77 78 78 78 78 80 82 87 89 89 88
191 188 185 173 152 123 103 93 91 91 93 96 101 106 110 113 116 116 113 117 128 143 156 160 161 161 159 150 135 120 116 125 141 155 177 162 144 138 144 145 141 127 106 87 80 81 88 102 109 107 84 61 47 39 31 27 25 24 25 29 28 24 18 21 33 48 58 64 69 71 72 74 75 75 75 75 75 76 76 76 77 78 80 85 90 94
179 176 169 153 136 120 107 97 91 88 87 88 93 98 104 105 104 101 94 88 82 78 80 101 128 145 153 149 142 135 131 128 129 132 132 145 143 138 136 140 139 130 119 114 109 104 98 97 101 103 102 83 60 43 33 28 27 28 29 30 28 22 12 13 23 38 51 57 61 63 64 69 72 72 73 74 74 75 76 76 76 76 76 79 83 88
167 162 154 142 131 122 112 104 98 93 89 87 90 95 101 102 101 98 94 89 85 80 76 70 67 70 88 116 125 127 128 124 115 104 89 96 135 139 128 132 136 133 124 122 119 115 111 105 100 97 97 92 78 56 34 29 32 35 36 32 28 22 13 11 17 30 48 56 58 58 58 63 67 71 73 74 75 76 76 76 75 75 75 75 76 78
155 149 140 131 124 119 112 105 100 98 97 94 93 95 98 99 97 95 92 89 86 83 79 73 69 66 65 71 84 96 106 104 97 86 70 55 68 115 120 119 120 121 121 123 123 121 118 114 106 96 86 86 85 79 59 43 42 44 42 36 30 24 15 10 13 25 46 57 59 58 56 59 63 67 71 74 74 75 75 75 76 76 76 76 76 76
143 135 125 119 114 112 110 105 102 100 100 99 97 96 95 95 95 94 92 89 87 86 84 79 76 75 73 77 79 81 85 85 82 76 65 54 56 89 111 107 99 93 98 113 121 124 122 119 114 105 92 85 85 88 89 75 64 59 52 45 39 32 21 13 13 22 41 55 60 60 58 58 60 63 65 66 66 69 72 72 73 75 77 77 77 77
134 127 118 109 105 105 106 103 102 100 98 97 98 98 97 94 93 92 91 90 89 88 88 87 85 81 77 76 76 75 75 74 72 69 63 56 61 83 102 103 98 90 84 89 100 108 113 114 114 113 111 103 96 90 83 80 78 76 73 60 48 38 25 16 15 22 35 50 58 61 59 58 59 61 61 59 61 64 67 67 68 70 74 77 78 76
124 117 108 102 97 95 96 98 99 99 100 101 101 101 99 97 95 92 92 92 92 92 92 90 88 83 77 73 70 67 65 64 63 62 59 54 58 72 89 96 98 95 87 78 77 83 91 97 101 105 108 110 108 103 91 80 77 80 84 75 58 40 23 18 17 22 30 45 55 61 61 60 61 62 61 60 61 63 65 66 63 62 63 73 80 81
117 109 102 96 91 87 86 88 91 95 101 105 104 103 103 104 103 102 101 99 99 99 98 94 89 83 76 70 65 62 59 58 57 56 56 54 57 64 75 83 89 92 89 81 76 76 83 91 95 97 98 102 102 99 90 81 76 75 78 79 76 60 34 26 23 24 32 42 52 60 66 66 65 64 64 62 61 61 65 69 68 64 57 60 71 83
113 108 104 100 94 89 86 86 87 90 95 98 99 101 105 110 113 114 114 112 111 109 106 102 96 89 81 72 65 60 56 55 54 54 54 54 57 62 68 73 80 86 90 86 82 77 78 85 90 94 98 101 101 97 88 81 75 73 75 83 87 79 55 33 24 24 37 43 50 58 66 69 68 67 67 66 63 61 62 66 69 69 66 61 61 67
109 106 104 99 97 96 97 93 91 89 90 88 86 86 89 100 112 118 119 118 116 113 108 104 101 96 90 81 71 63 56 54 53 53 54 55 58 63 68 70 74 80 89 91 88 83 77 76 78 81 85 92 97 98 96 88 78 69 64 70 81 86 73 35 20 24 41 48 53 58 65 70 73 73 72 70 66 63 61 63 66 68 70 71 70 68
107 104 101 97 95 93 90 88 87 88 90 88 84 79 75 85 102 113 116 113 111 108 105 104 100 95 90 86 80 73 64 58 54 53 54 56 59 63 68 68 68 69 75 84 89 90 83 76 73 73 76 82 87 90 91 87 78 66 53 50 59 72 82 74 54 47 52 55 57 60 66 75 80 79 75 70 66 63 62 63 63 64 66 70 74 77
108 104 100 97 94 91 87 86 86 88 88 86 84 82 80 85 96 106 110 109 106 105 107 109 104 96 90 88 86 82 75 66 59 56 55 55 58 61 64 65 65 64 64 67 73 81 86 83 80 76 74 76 79 82 85 85 82 77 70 65 66 70 72 70 65 63 67 66 64 62 65 77 83 82 77 72 67 64 62 64 66 66 66 67 72 76
104 100 96 92 88 86 87 90 91 91 89 86 84 83 85 88 94 98 102 102 101 100 100 100 98 96 96 95 92 89 84 76 69 63 60 57 56 57 59 61 63 64 64 62 61 63 69 77 82 86 85 80 76 74 76 83 85 85 81 78 77 75 71 62 54 54 63 71 71 68 67 76 80 81 81 77 73 67 62 62 64 65 66 67 70 73
97 95 92 90 88 87 89 94 95 95 92 89 87 85 86 90 92 92 91 92 94 95 93 89 88 90 93 94 94 93 92 88 83 76 71 68 66 65 64 64 64 65 68 67 64 61 59 60 64 74 87 87 82 75 68 73 79 84 87 85 83 81 76 63 47 35 37 53 57 56 62 77 81 83 85 84 81 75 66 62 60 60 61 65 70 73
94 93 94 94 95 96 97 98 98 97 94 92 88 85 82 84 87 89 88 88 90 92 92 89 88 88 88 87 89 92 94 94 91 87 83 80 78 77 76 76 74 73 72 72 70 67 63 57 54 54 61 77 85 86 78 72 72 78 84 87 87 86 83 73 54 33 28 31 24 19 34 77 89 93 95 92 87 81 74 67 60 55 52 58 67 74
88 91 96 100 102 103 102 100 97 95 94 93 90 85 77 77 80 84 86 86 87 88 89 90 91 91 89 88 88 90 93 93 93 91 89 90 90 90 90 90 89 86 82 79 76 74 70 64 57 52 49 57 71 82 85 77 74 74 77 81 85 88 88 81 67 52 46 41 36 34 43 63 83 96 102 97 93 88 82 74 65 55 47 50 59 70
83 87 94 97 99 99 98 96 93 91 90 90 88 85 80 75 73 74 78 80 81 81 83 87 90 92 92 91 91 92 93 95 94 92 90 93 96 99 101 102 101 99 94 89 84 81 78 70 62 54 49 49 54 65 80 81 81 79 76 73 76 83 89 85 77 68 64 60 55 52 54 55 62 79 94 96 96 93 87 79 68 57 45 44 51 61
83 86 89 91 92 91 90 88 87 86 85 85 85 85 83 80 77 75 76 77 78 78 78 81 85 89 92 91 90 90 91 93 92 90 86 86 91 96 103 108 110 108 104 98 92 87 85 81 71 58 47 42 42 46 67 80 90 91 84 74 70 76 85 85 81 75 71 67 63 59 58 56 55 63 83 95 97 96 90 83 73 58 42 40 45 53